"Pseudo-MPEC" for C0GNT15

Created 2023 Apr 2 22:22:02 UT using Find_Orb

Click here for an explanation of pseudo-MPECs

 
 Astrometry: 
     C0GNT15* C2023 03 14.10682702 11 17.527+19 20 41.75   ~3E3M 19.63GVNEOCPV00
     C0GNT15  C2023 03 14.11191002 11 17.524+19 20 44.74   ~3E3M 19.07GVNEOCPV00
     C0GNT15  C2023 03 14.12204602 11 17.441+19 20 50.60   ~3E3M       VNEOCPV00

Station data:
(V00) Kitt Peak-Bok  (N31.963125 W111.600190)  US/Arizona.  Observers T. A.
   Pruyne, B. M. Africano, E. J. Christensen, G. A. Farneth, D. C. Fuls, A.
   R. Gibbs, A. D. Grauer, H. Gröller, J. A. Johnson, R. A. Kowalski, S. M.
   Larson, G. J. Leonard, D. Rankin, R. L. Seaman, F. C. Shelly, K. W.
   Wierzchoś. 2.25-m reflector + 4x4K mosaic CCD.

Orbital elements:  C0GNT15
   Perihelion 2023 Mar 4.90995 +/- 53.2 TT = 21:50:20 (JD 2460008.40995)
Epoch 2023 Mar 14.0 TT = JDT 2460017.5   Earth MOID: 0.0167      AutoNEOCP
M   9.45969046 +/- 46               (J2000 ecliptic)
n   1.04066470 +/- 1.05             Peri.   35.43993 +/- 60
a   0.96441102 +/- 0.65             Node   123.84410 +/- 36
e   0.0288543 +/- 0.26              Incl.    0.70995 +/- 56
P   0.95/345.93d           H 19.29  G  0.15   U 12.8  SR
q 0.93658353 +/- 0.73    Q 0.99223851 +/- 520
From 3 observations 2023 Mar. 14 (21.9 min); mean residual 0".15
Residuals in arcseconds: 
230314 V00  .19-  .00     230314 V00  .29+  .02+    230314 V00  .10-  .01-    

Ephemerides (geocentric):
Date (UTC) HH   RA             Dec           delta  r     elong  mag " sig PA
---- --------  ------------   ------------  ------ ------ -----  --- --------
2023 04 02 22  01 51 54.162   +21 44 50.71  .06444 .94060  23.1 22?? 244' 167
2023 04 02 23  01 51 48.673   +21 44 49.53  .06441 .94061  23.1 22?? 246' 167
2023 04 03 00  01 51 43.172   +21 44 48.24  .06438 .94062  23.0 22?? 248' 168
2023 04 03 01  01 51 37.660   +21 44 46.84  .06436 .94063  23.0 22?? 250' 168
2023 04 03 02  01 51 32.137   +21 44 45.33  .06433 .94064  22.9 22?? 252' 168
2023 04 03 03  01 51 26.602   +21 44 43.72  .06430 .94065  22.8 22?? 255' 169
2023 04 03 04  01 51 21.055   +21 44 42.00  .06428 .94066  22.8 22?? 257' 169
2023 04 03 05  01 51 15.497   +21 44 40.18  .06425 .94068  22.7 22?? 260' 170
2023 04 03 06  01 51 09.928   +21 44 38.24  .06423 .94069  22.7 23?? 262' 170
2023 04 03 07  01 51 04.347   +21 44 36.20  .06420 .94070  22.6 23?? 265' 171
2023 04 03 08  01 50 58.755   +21 44 34.06  .06417 .94071  22.6 23?? 268' 171
2023 04 03 09  01 50 53.151   +21 44 31.81  .06415 .94072  22.5 23?? 270' 171
2023 04 03 10  01 50 47.537   +21 44 29.44  .06412 .94073  22.5 23?? 273' 172
2023 04 03 11  01 50 41.911   +21 44 26.98  .06410 .94074  22.4 23?? 276' 172
2023 04 03 12  01 50 36.273   +21 44 24.40  .06407 .94076  22.4 23?? 279' 173
2023 04 03 13  01 50 30.625   +21 44 21.72  .06405 .94077  22.3 23?? 283' 173
2023 04 03 14  01 50 24.965   +21 44 18.93  .06402 .94078  22.3 23?? 286' 174
2023 04 03 15  01 50 19.295   +21 44 16.03  .06399 .94079  22.2 23?? 289' 174
2023 04 03 16  01 50 13.613   +21 44 13.02  .06397 .94080  22.2 23?? 293' 174
2023 04 03 17  01 50 07.920   +21 44 09.91  .06394 .94081  22.1 23?? 296' 175
2023 04 03 18  01 50 02.216   +21 44 06.68  .06392 .94082  22.1 23?? 300' 175
2023 04 03 19  01 49 56.501   +21 44 03.35  .06389 .94084  22.0 23?? 304' 176
2023 04 03 20  01 49 50.774   +21 43 59.91  .06387 .94085  21.9 23?? 308' 176
2023 04 03 21  01 49 45.037   +21 43 56.37  .06384 .94086  21.9 23?? 312' 176
2023 04 03 22  01 49 39.289   +21 43 52.71  .06382 .94087  21.8 23?? 316' 177
2023 04 03 23  01 49 33.531   +21 43 48.95  .06379 .94088  21.8 23?? 320' 177
2023 04 04 00  01 49 27.761   +21 43 45.07  .06377 .94089  21.7 23?? 325' 178
2023 04 04 01  01 49 21.980   +21 43 41.09  .06374 .94091  21.7 23?? 329' 178
2023 04 04 02  01 49 16.189   +21 43 37.00  .06372 .94092  21.6 23?? 334' 178
2023 04 04 03  01 49 10.387   +21 43 32.80  .06369 .94093  21.6 23?? 339' 179
2023 04 04 04  01 49 04.574   +21 43 28.49  .06367 .94094  21.5 23?? 344' 179
2023 04 04 05  01 48 58.750   +21 43 24.08  .06364 .94095  21.5 23?? 349' 179
2023 04 04 06  01 48 52.915   +21 43 19.55  .06362 .94096  21.4 23?? 354' 179
2023 04 04 07  01 48 47.070   +21 43 14.91  .06360 .94098  21.4 23?? 360'   0
2023 04 04 08  01 48 41.215   +21 43 10.17  .06357 .94099  21.3 23?? 365'   0
2023 04 04 09  01 48 35.348   +21 43 05.32  .06355 .94100  21.3 23?? 371'   0
2023 04 04 10  01 48 29.472   +21 43 00.35  .06352 .94101  21.2 23?? 377'   0
2023 04 04 11  01 48 23.584   +21 42 55.28  .06350 .94102  21.2 23?? 383'   0
2023 04 04 12  01 48 17.686   +21 42 50.10  .06347 .94104  21.1 23?? 389'   1
2023 04 04 13  01 48 11.778   +21 42 44.80  .06345 .94105  21.1 23?? 396'   1
2023 04 04 14  01 48 05.859   +21 42 39.40  .06343 .94106  21.0 23?? 402'   1
2023 04 04 15  01 47 59.930   +21 42 33.89  .06340 .94107  21.0 23?? 409'   1
2023 04 04 16  01 47 53.991   +21 42 28.27  .06338 .94108  20.9 23?? 416'   1
2023 04 04 17  01 47 48.041   +21 42 22.54  .06335 .94109  20.8 23?? 423'   1
2023 04 04 18  01 47 42.081   +21 42 16.70  .06333 .94111  20.8 23?? 430'   1
2023 04 04 19  01 47 36.110   +21 42 10.74  .06331 .94112  20.7 23?? 437'   1
2023 04 04 20  01 47 30.130   +21 42 04.68  .06328 .94113  20.7 23?? 444'   1
2023 04 04 21  01 47 24.139   +21 41 58.51  .06326 .94114  20.6 23?? 452'   1